GW6605 Weather Reports


time (UTC)temp
F
wind
direction
speed
knots
gust
knots
rain 1hr
in
rain 24hr
in
rain mn
in
humidity
%
barometer
mb
20260507000505 52 359 0.9 2.6 0.00 0.85 0.85 90 1006.3
20260507000026 52 359 0.9 2.6 0.00 0.85 0.85 90 1006.1
20260506235507 52 274 0.0 1.7 0.00 0.85 0.85 91 1006.1
20260506235009 52 311 0.0 1.7 0.00 0.85 0.85 91 1005.9
20260506234524 52 60 0.0 1.7 0.00 0.85 0.85 90 1005.7
20260506234011 53 58 0.0 1.7 0.00 0.85 0.85 90 1005.8
20260506233510 53 63 0.0 1.7 0.00 0.85 0.85 90 1005.7
20260506233013 53 63 0.0 2.6 0.03 0.85 0.85 90 1005.6
20260506232504 53 72 0.9 2.6 0.04 0.85 0.85 89 1005.5
20260506232009 53 286 0.0 3.5 0.04 0.85 0.85 90 1005.5
20260506231520 53 82 0.9 3.5 0.04 0.85 0.85 89 1005.4
20260506231006 53 360 1.7 3.5 0.04 0.85 0.85 88 1005.4
20260506230505 54 350 0.9 5.2 0.04 0.85 0.85 87 1005.2
20260506230006 55 44 2.6 5.2 0.04 0.85 0.85 88 1005.0
20260506225503 56 70 1.7 4.3 0.04 0.85 0.85 89 1004.8
20260506225004 57 44 1.7 4.3 0.04 0.85 0.85 90 1004.5
20260506224507 58 276 1.7 3.5 0.04 0.85 0.85 90 1004.6
20260506224004 58 48 0.9 3.5 0.04 0.85 0.85 90 1004.3
20260506223504 59 53 0.9 3.5 0.04 0.85 0.85 90 1004.3
20260506223009 60 82 0.9 1.7 0.01 0.82 0.82 93 1004.3
20260506222505 60 248 0.0 1.7 0.01 0.81 0.81 93 1004.1
20260506222005 60 248 0.0 0.9 0.02 0.81 0.81 93 1004.0
20260506221516 60 248 0.0 1.7 0.04 0.81 0.81 92 1004.1
20260506221007 60 248 0.0 1.7 0.07 0.82 0.81 92 1004.1
20260506220509 60 203 0.0 1.7 0.07 0.84 0.81 93 1004.0
20260506220019 60 211 0.0 0.0 0.07 0.84 0.81 93 1004.0
20260506215504 60 210 0.0 0.0 0.07 0.84 0.81 93 1004.0
20260506215002 60 210 0.0 1.7 0.07 0.84 0.81 92 1004.0
20260506214508 60 211 0.0 1.7 0.07 0.84 0.81 92 1003.9
20260506214003 60 254 0.0 1.7 0.08 0.84 0.81 92 1004.0
20260506213503 60 255 0.0 1.7 0.08 0.84 0.81 92 1003.9
20260506213009 60 255 0.0 1.7 0.08 0.84 0.81 92 1004.0
20260506212505 60 31 0.0 1.7 0.07 0.83 0.80 92 1004.0
20260506212005 60 48 0.9 1.7 0.06 0.82 0.79 93 1004.0
20260506211514 60 119 0.0 1.7 0.05 0.80 0.77 92 1003.9
20260506211003 60 346 0.0 2.6 0.02 0.77 0.74 92 1004.0
20260506210504 60 259 0.9 2.6 0.03 0.77 0.74 92 1003.9
20260506210021 61 263 0.9 3.5 0.03 0.77 0.74 92 1003.7
20260506205509 61 359 1.7 3.5 0.03 0.77 0.74 92 1003.7
20260506205010 61 260 0.9 2.6 0.03 0.77 0.74 92 1003.8
20260506204527 61 250 0.0 2.6 0.04 0.77 0.74 93 1003.9
20260506204003 61 248 0.9 2.6 0.03 0.76 0.73 93 1003.8
20260506203503 61 250 1.7 2.6 0.04 0.76 0.73 93 1003.9
20260506203007 61 248 0.9 2.6 0.04 0.76 0.73 93 1003.9
20260506202504 61 215 0.0 1.7 0.04 0.76 0.73 93 1003.9
20260506202003 60 165 0.0 1.7 0.06 0.76 0.73 93 1004.0
20260506201512 60 257 0.9 1.7 0.08 0.75 0.72 93 1004.0
20260506201006 60 113 0.0 1.7 0.14 0.75 0.72 93 1004.0
20260506200505 60 252 0.0 1.7 0.17 0.74 0.71 93 1004.1
20260506200015 60 244 0.0 1.7 0.25 0.74 0.71 93 1004.1
20260506195506 60 270 0.0 1.7 0.28 0.74 0.71 93 1004.2
20260506195008 60 283 0.9 1.7 0.29 0.74 0.71 92 1004.3
20260506194518 60 252 0.0 1.7 0.29 0.73 0.70 93 1004.4
20260506194012 60 205 0.9 1.7 0.30 0.73 0.70 92 1004.4
20260506193509 60 236 0.0 1.7 0.29 0.72 0.69 93 1004.5
20260506193003 60 51 0.0 1.7 0.30 0.72 0.69 93 1004.6
20260506192502 60 247 0.0 1.7 0.31 0.72 0.69 93 1004.6
20260506192007 60 76 0.0 1.7 0.30 0.70 0.67 92 1004.6
20260506191512 60 235 0.0 1.7 0.28 0.67 0.64 92 1004.8
20260506191006 60 235 0.0 1.7 0.23 0.61 0.58 92 1004.9
20260506190504 60 237 0.0 1.7 0.20 0.57 0.54 92 1004.9
20260506190016 60 252 0.0 1.7 0.13 0.49 0.46 91 1005.1
20260506185504 60 201 0.0 2.6 0.10 0.46 0.43 91 1005.1
20260506185003 60 309 0.0 2.6 0.10 0.45 0.42 92 1005.1
20260506184537 60 231 0.9 3.5 0.09 0.44 0.41 92 1005.2
20260506184013 60 193 0.9 3.5 0.09 0.43 0.40 92 1005.2
20260506183507 60 234 0.9 2.6 0.11 0.43 0.40 92 1005.2
20260506183033 60 257 0.0 2.6 0.11 0.42 0.39 92 1005.2
20260506182508 60 236 0.9 2.6 0.11 0.41 0.38 92 1005.3
20260506182012 60 211 0.9 2.6 0.13 0.40 0.37 92 1005.3
20260506181513 60 203 0.9 3.5 0.13 0.39 0.36 92 1005.4
20260506181006 60 169 0.0 3.5 0.14 0.38 0.35 92 1005.5
20260506180504 59 281 0.9 3.5 0.15 0.37 0.34 92 1005.4
20260506180016 59 190 0.9 2.6 0.15 0.36 0.33 92 1005.5
20260506175505 59 262 1.7 2.6 0.17 0.36 0.33 92 1005.5
20260506175003 59 264 1.7 2.6 0.17 0.35 0.32 92 1005.6
20260506174523 59 113 0.9 2.6 0.19 0.35 0.32 92 1005.7
20260506174007 59 169 0.9 3.5 0.19 0.34 0.31 92 1005.8
20260506173507 59 248 0.9 3.5 0.19 0.32 0.29 92 1005.9
20260506173020 59 352 0.0 2.6 0.19 0.31 0.28 92 1005.9
20260506172508 59 196 0.9 2.6 0.19 0.30 0.27 91 1006.1
20260506172009 60 229 0.9 2.6 0.17 0.27 0.24 91 1006.1
20260506171523 60 275 0.9 3.5 0.16 0.26 0.23 91 1006.2
20260506171008 60 283 0.9 3.5 0.15 0.24 0.21 91 1006.2
20260506170505 60 269 0.9 2.6 0.14 0.22 0.19 91 1006.2
20260506170011 60 237 0.9 3.5 0.13 0.21 0.18 91 1006.2
20260506165504 60 231 1.7 3.5 0.11 0.19 0.16 90 1006.3
20260506165004 60 259 0.9 3.5 0.11 0.18 0.15 91 1006.3
20260506164516 60 232 0.9 3.5 0.09 0.16 0.13 90 1006.2
20260506164008 60 278 0.9 3.5 0.08 0.15 0.12 90 1006.2
20260506163504 60 260 1.7 3.5 0.07 0.13 0.10 89 1006.3
20260506163018 60 271 0.0 1.7 0.06 0.12 0.09 89 1006.2
20260506162508 60 281 0.0 1.7 0.05 0.11 0.08 89 1006.5
20260506162009 60 198 0.0 1.7 0.05 0.10 0.07 89 1006.5
20260506161524 60 245 0.0 1.7 0.05 0.10 0.07 89 1006.6
20260506161009 60 95 0.0 1.7 0.05 0.09 0.06 88 1006.7
20260506160511 60 125 0.0 1.7 0.05 0.08 0.05 89 1006.8
20260506160026 60 259 0.0 1.7 0.05 0.08 0.05 88 1006.8
20260506155504 60 227 0.0 1.7 0.05 0.08 0.05 88 1006.9
20260506155003 60 142 0.0 1.7 0.04 0.07 0.04 88 1006.9
20260506154512 60 1 0.0 1.7 0.04 0.07 0.04 88 1007.0
20260506154005 60 359 0.0 1.7 0.04 0.07 0.04 87 1007.1
20260506153509 60 347 0.0 1.7 0.03 0.06 0.03 86 1007.1
20260506153021 60 353 0.0 1.7 0.03 0.06 0.03 85 1007.4
20260506152508 61 358 0.0 1.7 0.03 0.06 0.03 85 1007.5
20260506152008 61 327 0.0 1.7 0.02 0.05 0.02 85 1007.5
20260506151524 61 356 0.0 1.7 0.02 0.05 0.02 84 1007.7
20260506151008 61 343 0.0 1.7 0.01 0.04 0.01 83 1007.9
20260506150507 61 360 0.0 1.7 0.00 0.03 0.00 81 1007.9
20260506150023 61 1 0.0 1.7 0.00 0.03 0.00 80 1007.9
20260506145510 61 73 0.0 1.7 0.00 0.03 0.00 79 1008.0
20260506145010 61 124 0.9 1.7 0.00 0.03 0.00 79 1007.9
20260506144527 61 287 0.0 1.7 0.00 0.03 0.00 79 1008.1
20260506144005 61 251 0.0 2.6 0.00 0.03 0.00 78 1008.1
20260506143504 61 288 0.9 2.6 0.00 0.03 0.00 78 1007.9
20260506143003 61 279 0.9 2.6 0.00 0.03 0.00 78 1007.8
20260506142505 61 188 0.0 2.6 0.00 0.03 0.00 78 1007.7
20260506142003 61 257 0.9 2.6 0.00 0.03 0.00 78 1007.7
20260506141502 61 168 0.9 2.6 0.00 0.03 0.00 78 1007.7
20260506141005 61 134 0.9 2.6 0.00 0.03 0.00 78 1007.8
20260506140506 61 86 0.9 2.6 0.00 0.03 0.00 78 1007.7
20260506140005 61 212 0.9 2.6 0.00 0.03 0.00 79 1007.7
20260506135502 61 110 0.0 1.7 0.00 0.03 0.00 79 1007.6
20260506135005 61 75 0.9 2.6 0.00 0.03 0.00 79 1007.6
20260506134504 61 217 0.9 4.3 0.00 0.03 0.00 79 1007.7
20260506134000 60 64 0.9 3.5 0.00 0.03 0.00 79 1007.7
20260506133003 60 236 0.9 3.5 0.00 0.03 0.00 81 1007.6
20260506132506 60 53 0.9 2.6 0.00 0.03 0.00 82 1007.5
20260506132005 59 68 0.0 1.7 0.00 0.03 0.00 82 1007.6
20260506131503 59 10 0.0 1.7 0.00 0.03 0.00 83 1007.7
20260506131003 59 296 0.9 1.7 0.00 0.03 0.00 82 1007.9
20260506130505 59 73 0.0 1.7 0.00 0.03 0.00 83 1007.9
20260506130004 59 79 0.0 1.7 0.00 0.03 0.00 83 1008.1
20260506125502 58 24 0.9 1.7 0.00 0.03 0.00 84 1008.2
20260506125002 58 70 0.0 1.7 0.00 0.03 0.00 84 1008.3
20260506124502 58 205 0.9 1.7 0.00 0.03 0.00 85 1008.3
20260506124004 58 324 0.0 1.7 0.00 0.03 0.00 86 1008.3
20260506122004 56 257 0.9 2.6 0.00 0.03 0.00 88 1008.5
20260506121504 56 65 0.0 2.6 0.00 0.03 0.00 88 1007.6
20260506121003 56 57 0.9 2.6 0.00 0.03 0.00 88 1007.9
20260506120503 56 290 0.0 1.7 0.00 0.03 0.00 89 1008.1
20260506120010 55 259 0.0 1.7 0.00 0.03 0.00 90 1007.9
20260506115503 55 210 0.0 1.7 0.00 0.03 0.00 91 1008.1
20260506115004 55 116 0.0 1.7 0.00 0.03 0.00 91 1008.0
20260506114511 54 274 0.0 1.7 0.00 0.03 0.00 92 1008.2
20260506114003 54 233 0.0 1.7 0.00 0.03 0.00 93 1008.3
20260506113503 54 233 0.0 1.7 0.00 0.03 0.00 93 1008.2
20260506113010 53 236 0.0 1.7 0.00 0.03 0.00 93 1008.3
20260506111504 52 246 0.0 1.7 0.00 0.03 0.00 94 1008.1
20260506111004 52 96 0.0 1.7 0.00 0.03 0.00 94 1008.1
20260506110505 51 96 0.0 1.7 0.00 0.03 0.00 94 1008.2
20260506110006 51 96 0.0 1.7 0.00 0.03 0.00 93 1008.2
20260506105503 51 96 0.0 0.9 0.00 0.03 0.00 93 1008.4
20260506105002 51 106 0.0 1.7 0.00 0.03 0.00 93 1008.4
20260506104503 51 187 0.0 1.7 0.00 0.03 0.00 93 1008.4
20260506104003 51 230 0.0 1.7 0.00 0.03 0.00 93 1008.3
20260506103503 51 230 0.0 1.7 0.00 0.03 0.00 93 1008.3
20260506103009 51 207 0.0 1.7 0.00 0.03 0.00 93 1008.3
20260506102504 51 206 0.0 1.7 0.00 0.03 0.00 93 1008.2
20260506102004 51 184 0.0 1.7 0.00 0.03 0.00 93 1008.3
20260506101508 51 155 0.0 1.7 0.00 0.03 0.00 93 1008.2
20260506101003 51 155 0.0 1.7 0.00 0.03 0.00 93 1008.3
20260506100506 51 158 0.0 1.7 0.00 0.03 0.00 93 1008.3
20260506100009 51 214 0.0 1.7 0.00 0.03 0.00 92 1008.3
20260506095503 51 184 0.0 1.7 0.00 0.03 0.00 92 1008.2
20260506095003 51 186 0.0 1.7 0.00 0.03 0.00 92 1008.2
20260506094507 51 241 0.0 0.0 0.00 0.03 0.00 93 1008.4
20260506094004 51 241 0.0 1.7 0.00 0.03 0.00 93 1008.3
20260506093505 51 241 0.0 1.7 0.00 0.03 0.00 93 1008.1
20260506093004 51 224 0.0 0.9 0.00 0.03 0.00 92 1008.2
20260506092504 52 226 0.0 0.9 0.00 0.03 0.00 92 1008.2
20260506092004 52 226 0.0 1.7 0.00 0.03 0.00 92 1008.3
20260506091506 52 226 0.0 1.7 0.00 0.03 0.00 92 1008.2
20260506091004 52 226 0.0 1.7 0.00 0.03 0.00 92 1008.2
20260506090504 52 226 0.0 1.7 0.00 0.03 0.00 92 1008.2
20260506090008 52 226 0.0 1.7 0.00 0.03 0.00 92 1008.3
20260506085503 52 227 0.0 0.0 0.00 0.03 0.00 92 1008.3
20260506085003 52 227 0.0 1.7 0.00 0.03 0.00 92 1008.2
20260506084507 53 227 0.0 1.7 0.00 0.03 0.00 92 1008.2
20260506084005 53 227 0.0 1.7 0.00 0.03 0.00 92 1008.5
20260506083503 53 227 0.0 1.7 0.00 0.03 0.00 92 1008.4
20260506083006 53 234 0.0 1.7 0.00 0.03 0.00 92 1008.3
20260506082504 53 234 0.0 1.7 0.00 0.03 0.00 92 1008.4
20260506082005 53 234 0.0 1.7 0.00 0.03 0.00 92 1008.5
20260506081508 53 234 0.0 1.7 0.00 0.03 0.00 92 1008.5
20260506081003 53 234 0.0 0.9 0.00 0.03 0.00 92 1008.5
20260506080504 53 236 0.0 0.9 0.00 0.03 0.00 92 1008.7
20260506073504 54 237 0.0 1.7 0.00 0.03 0.00 91 1008.6
20260506073008 54 217 0.9 1.7 0.00 0.03 0.00 91 1008.7
20260506072504 54 192 0.9 1.7 0.00 0.03 0.00 91 1008.7
20260506072005 55 56 0.0 1.7 0.00 0.03 0.00 91 1008.5
20260506071508 55 194 0.9 1.7 0.00 0.03 0.00 91 1008.5
20260506071006 55 76 0.0 1.7 0.00 0.03 0.00 91 1008.7
20260506070503 55 76 0.9 1.7 0.00 0.03 0.00 91 1008.5
20260506062504 56 207 0.0 1.7 0.00 0.03 0.00 90 1008.2
20260506062004 56 207 0.0 1.7 0.00 0.03 0.00 90 1008.2
20260506061512 56 207 0.0 1.7 0.00 0.03 0.00 90 1008.3
20260506061009 56 207 0.0 1.7 0.00 0.03 0.00 90 1008.4
20260506060505 56 207 0.0 1.7 0.00 0.03 0.00 90 1008.5
20260506051006 58 253 0.9 2.6 0.00 0.03 0.00 89 1008.6
20260506050504 58 103 0.0 0.0 0.00 0.03 0.00 89 1008.5
20260506045005 58 103 0.0 1.7 0.00 0.03 0.00 89 1008.5
20260506044512 58 259 0.0 1.7 0.00 0.03 0.00 89 1008.4
20260506044004 58 259 0.0 1.7 0.00 0.03 0.00 89 1008.5
20260506043503 58 208 0.0 1.7 0.00 0.03 0.00 89 1008.5
20260506043014 58 84 0.0 1.7 0.00 0.03 0.00 89 1008.3
20260506042504 58 86 0.9 1.7 0.00 0.03 0.00 88 1008.4
20260506041004 58 74 0.0 1.7 0.00 0.03 0.00 88 1008.2
20260506040503 59 74 0.0 1.7 0.00 0.03 0.00 88 1008.1
20260506040007 59 74 0.0 0.0 0.00 0.03 0.00 88 1008.2
20260506035508 59 74 0.0 0.0 0.00 0.03 0.03 88 1008.2
20260506035002 59 74 0.0 1.7 0.00 0.03 0.03 88 1008.2
20260506034518 59 73 0.0 1.7 0.00 0.03 0.03 88 1008.3
20260506034004 59 74 0.0 1.7 0.00 0.03 0.03 88 1008.2
20260506033505 59 106 0.0 1.7 0.00 0.03 0.03 88 1008.3
20260506033012 59 263 0.0 1.7 0.00 0.03 0.03 88 1008.3
20260506032506 59 263 0.0 1.7 0.00 0.03 0.03 88 1008.3
20260506032009 59 263 0.0 1.7 0.00 0.03 0.03 87 1008.2
20260506031513 59 263 0.0 0.9 0.00 0.03 0.03 87 1008.3
20260506025503 60 92 0.0 1.7 0.00 0.03 0.03 85 1008.3
20260506025003 60 91 0.0 1.7 0.00 0.03 0.03 85 1008.3
20260506024515 60 197 0.0 1.7 0.00 0.03 0.03 85 1008.3
20260506024005 60 250 0.0 1.7 0.00 0.03 0.03 85 1008.3
20260506023504 60 250 0.0 1.7 0.00 0.03 0.03 85 1008.3
20260506023013 60 254 0.0 1.7 0.00 0.03 0.03 84 1008.4
20260506022509 60 232 0.0 1.7 0.00 0.03 0.03 84 1008.3
20260506022006 60 235 0.0 1.7 0.00 0.03 0.03 84 1008.2
20260506021515 61 235 0.0 1.7 0.00 0.03 0.03 84 1008.2
20260506021006 61 235 0.0 0.9 0.00 0.03 0.03 83 1008.3
20260506020504 61 231 0.0 0.9 0.00 0.03 0.03 83 1008.2
20260506020016 61 231 0.0 1.7 0.00 0.03 0.03 83 1008.1
20260506015007 61 231 0.0 1.7 0.00 0.03 0.03 83 1008.0
20260506014003 61 231 0.0 1.7 0.00 0.03 0.03 81 1008.1
20260506013503 61 231 0.0 1.7 0.00 0.03 0.03 81 1008.0
20260506013013 61 231 0.0 1.7 0.00 0.03 0.03 81 1008.0
20260506012504 62 233 0.0 1.7 0.00 0.03 0.03 80 1007.9
20260506012006 62 220 0.9 1.7 0.00 0.03 0.03 80 1007.7
20260506011515 62 249 0.9 1.7 0.00 0.03 0.03 78 1007.8
20260506011006 62 223 0.9 1.7 0.00 0.03 0.03 78 1007.7
20260506010506 63 173 0.0 1.7 0.00 0.03 0.03 77 1007.7
20260506010023 63 163 0.0 1.7 0.00 0.03 0.03 76 1007.8
20260506005507 63 225 0.0 1.7 0.00 0.03 0.03 76 1007.8
20260506004519 64 256 0.9 1.7 0.00 0.03 0.03 75 1007.6
20260506004008 64 255 0.0 1.7 0.00 0.03 0.03 76 1007.4
20260506003506 64 121 0.0 1.7 0.00 0.03 0.03 72 1007.0
20260506003012 64 96 0.0 0.9 0.00 0.03 0.03 71 1007.0
20260506002505 64 155 0.0 1.7 0.00 0.03 0.03 70 1007.2
20260506002006 64 345 0.0 1.7 0.00 0.03 0.03 70 1007.2
20260506001519 64 347 0.0 1.7 0.00 0.03 0.03 72 1007.2
20260506001003 64 20 0.0 1.7 0.00 0.03 0.03 71 1007.2